Orbital Elements at Epoch 2459200.5 (2020-Dec-17.0) TDB
Reference: JPL 22 (heliocentric ecliptic J2000)
Element | Value | Uncertainty (1-sigma) | Units |
e | .1850303837118307 | 3.8831e-08 | |
a | 2.4474562295279 | 7.5414e-09 | au |
q | 1.994602464260442 | 9.5645e-08 | au |
i | 5.284797603868956 | 4.0209e-06 | deg |
node | 150.5750251907427 | 3.7976e-05 | deg |
peri | 140.0837077036302 | 3.9276e-05 | deg |
M | 44.66948178461449 | 8.4465e-06 | deg |
tp | 2459026.968132445139 (2020-Jun-26.46813245) | 3.2974e-05 | TDB |
period | 1398.526909736099 3.83 | 6.4639e-06 1.77e-08 | d yr |
n | .2574137097354328 | 1.1898e-09 | deg/d |
Q | 2.900309994795358 | 8.9367e-09 | au |
|
| | Orbit Determination Parameters
Additional Information
|